O'Neill, NE

8:24 AM CDT on October 18, 2017 (GMT -0500)
The O'Neill Municipal-Baker

Weather History for KONL - May, 2014

Change the Weather History Date:

Wednesday, May 7, 2014

  Actual Average Record
Temperature  
Mean Temperature 60 °F -  
Max Temperature 69 °F 70 °F 90 °F (1966)
Min Temperature 51 °F 43 °F 30 °F (1976)
Degree Days  
Heating Degree Days 5    
Growing Degree Days 10 (Base 50)    
Moisture  
Dew Point 48 °F    
Average Humidity 64    
Maximum Humidity 83    
Minimum Humidity 48    
Precipitation  
Precipitation 0.19 in - - ()
Sea Level Pressure  
Sea Level Pressure 29.61 in    
Wind  
Wind Speed 10 mph (North)    
Max Wind Speed 18 mph    
Max Gust Speed 25 mph    
Visibility 10 miles    
Events Rain , Thunderstorm    
Averages and records for this station are not official NWS values.
T = Trace of Precipitation, MM = Missing Value Source: NWS Daily Summary

Daily Weather History Graph

Daily Weather History Graph

Search for Another Location

Airport or City:

Trip Planner

Search our weather history database for the weather conditions in past years. The results will help you decide how hot, cold, wet, or windy it might be!

Date:

Astronomy

May. 07, 2014 Rise Set
Actual Time 6:21 AM CDT 8:41 PM CDT
Civil Twilight 5:50 AM CDT 9:12 PM CDT
Nautical Twilight 5:11 AM CDT 9:51 PM CDT
Astronomical Twilight 4:28 AM CDT 10:35 PM CDT
Moon 1:39 PM CDT (5/7) 2:30 AM CDT (5/7)
Length of Visible Light 15h 22m
Length of Day
14h 19m
First Quarter, 55% of the Moon is Illuminated
May 7
First Quarter
May 14
Full
May 21
Last Quarter
May 28
New
Jun 5
First Quarter

Hourly Weather History & Observations

Time (CDT) Temp. Dew Point Humidity Pressure Visibility Wind Dir Wind Speed Gust Speed Precip Events Conditions
12:15 AM 55.2 °F 46.9 °F 74% 29.58 in 10.0 mi NNE 6.9 mph - N/A   Clear
12:35 AM 55.6 °F 47.1 °F 73% 29.58 in 10.0 mi NNE 8.1 mph - N/A   Clear
12:55 AM 55.4 °F 48.2 °F 77% 29.57 in 10.0 mi NNE 6.9 mph - N/A   Clear
1:15 AM 55.6 °F 47.7 °F 75% 29.57 in 10.0 mi NE 5.8 mph - N/A   Scattered Clouds
1:35 AM 56.5 °F 48.4 °F 74% 29.57 in 10.0 mi NE 5.8 mph - N/A   Mostly Cloudy
1:55 AM 56.5 °F 48.6 °F 75% 29.56 in 10.0 mi NNE 6.9 mph - N/A   Mostly Cloudy
2:15 AM 55.8 °F 48.4 °F 76% 29.56 in 10.0 mi NNE 5.8 mph - N/A   Scattered Clouds
2:35 AM 55.2 °F 48.2 °F 77% 29.55 in 10.0 mi NNE 9.2 mph - N/A   Clear
2:55 AM 54.9 °F 48.0 °F 78% 29.55 in 10.0 mi NNE 9.2 mph - N/A   Clear
3:15 AM 55.0 °F 47.5 °F 76% 29.54 in 10.0 mi NNE 8.1 mph - N/A   Clear
3:35 AM 54.0 °F 47.5 °F 79% 29.54 in 10.0 mi NNE 6.9 mph - N/A   Clear
3:55 AM 53.6 °F 47.5 °F 80% 29.54 in 10.0 mi North 9.2 mph - N/A   Clear
4:15 AM 53.6 °F 47.3 °F 79% 29.54 in 10.0 mi NNE 8.1 mph - N/A   Clear
4:35 AM 53.6 °F 47.5 °F 80% 29.55 in 10.0 mi North 9.2 mph - N/A   Clear
4:55 AM 53.6 °F 47.3 °F 79% 29.55 in 10.0 mi North 8.1 mph - N/A   Clear
5:15 AM 51.4 °F 46.6 °F 83% 29.56 in 10.0 mi North 9.2 mph - N/A   Clear
5:35 AM 51.8 °F 46.6 °F 82% 29.57 in 10.0 mi North 9.2 mph - N/A   Clear
5:55 AM 51.8 °F 46.6 °F 82% 29.59 in 10.0 mi NNW 12.7 mph - N/A   Clear
6:15 AM 52.3 °F 46.8 °F 81% 29.59 in 10.0 mi North 10.4 mph - N/A   Clear
6:35 AM 52.5 °F 46.4 °F 80% 29.59 in 10.0 mi North 10.4 mph - N/A   Clear
6:55 AM 52.3 °F 45.9 °F 79% 29.59 in 10.0 mi North 9.2 mph - N/A   Clear
7:15 AM 52.9 °F 46.0 °F 78% 29.59 in 10.0 mi North 11.5 mph - N/A   Clear
7:35 AM 53.8 °F 45.9 °F 75% 29.61 in 10.0 mi North 9.2 mph - N/A   Clear
7:55 AM 54.5 °F 46.0 °F 73% 29.62 in 10.0 mi North 9.2 mph - N/A   Scattered Clouds
8:15 AM 55.8 °F 45.7 °F 69% 29.61 in 10.0 mi North 11.5 mph - N/A   Overcast
8:35 AM 55.6 °F 44.6 °F 67% 29.61 in 10.0 mi North 11.5 mph 18.4 mph N/A   Overcast
8:55 AM 57.0 °F 44.8 °F 64% 29.61 in 10.0 mi NNE 12.7 mph - N/A   Mostly Cloudy
9:15 AM 57.0 °F 44.2 °F 62% 29.59 in 10.0 mi NNE 13.8 mph - N/A   Scattered Clouds
9:35 AM 57.7 °F 44.2 °F 61% 29.61 in 10.0 mi NNE 9.2 mph - N/A   Scattered Clouds
9:55 AM 58.5 °F 44.4 °F 60% 29.60 in 10.0 mi NNE 11.5 mph - N/A   Scattered Clouds
10:15 AM 59.0 °F 45.0 °F 60% 29.59 in 10.0 mi NE 10.4 mph - N/A   Clear
10:35 AM 60.6 °F 45.3 °F 57% 29.60 in 10.0 mi NNE 10.4 mph - N/A   Clear
10:55 AM 62.2 °F 45.7 °F 55% 29.61 in 10.0 mi North 12.7 mph 16.1 mph N/A   Scattered Clouds
11:15 AM 62.8 °F 46.0 °F 54% 29.60 in 10.0 mi North 12.7 mph 20.7 mph N/A   Scattered Clouds
11:35 AM 63.9 °F 46.4 °F 53% 29.61 in 10.0 mi North 13.8 mph - N/A   Scattered Clouds
11:55 AM 64.6 °F 47.1 °F 53% 29.61 in 10.0 mi North 13.8 mph 18.4 mph N/A   Mostly Cloudy
12:15 PM 64.2 °F 47.3 °F 54% 29.62 in 10.0 mi North 15.0 mph 19.6 mph N/A   Overcast
12:35 PM 65.1 °F 47.3 °F 52% 29.62 in 10.0 mi North 11.5 mph 18.4 mph N/A   Overcast
12:55 PM 66.2 °F 47.8 °F 52% 29.62 in 10.0 mi NNE 15.0 mph - N/A   Overcast
1:15 PM 67.1 °F 47.8 °F 50% 29.62 in 10.0 mi NNE 13.8 mph 20.7 mph N/A   Overcast
1:35 PM 67.1 °F 48.2 °F 51% 29.62 in 10.0 mi North 12.7 mph 18.4 mph N/A   Overcast
1:55 PM 69.1 °F 48.7 °F 48% 29.62 in 10.0 mi NNE 13.8 mph 19.6 mph N/A   Mostly Cloudy
2:15 PM 68.0 °F 48.7 °F 50% 29.62 in 10.0 mi NNE 11.5 mph 18.4 mph N/A   Overcast
2:35 PM 67.6 °F 48.2 °F 50% 29.62 in 10.0 mi North 12.7 mph - N/A   Overcast
2:55 PM 68.4 °F 49.1 °F 50% 29.63 in 10.0 mi North 12.7 mph 16.1 mph N/A   Overcast
3:15 PM 68.9 °F 49.1 °F 49% 29.62 in 10.0 mi North 13.8 mph 17.3 mph N/A   Overcast
3:35 PM 68.4 °F 48.7 °F 49% 29.62 in 10.0 mi North 11.5 mph 17.3 mph N/A   Overcast
3:55 PM 68.9 °F 48.7 °F 49% 29.62 in 10.0 mi NNE 13.8 mph - N/A   Overcast
4:15 PM 69.1 °F 48.9 °F 49% 29.62 in 10.0 mi North 10.4 mph - N/A   Overcast
4:35 PM 68.7 °F 48.6 °F 49% 29.62 in 10.0 mi North 11.5 mph - N/A   Overcast
4:55 PM 68.7 °F 48.9 °F 49% 29.62 in 10.0 mi North 10.4 mph - N/A   Overcast
5:15 PM 68.7 °F 49.3 °F 50% 29.63 in 10.0 mi NNE 11.5 mph 16.1 mph N/A   Overcast
5:35 PM 68.7 °F 48.9 °F 49% 29.63 in 10.0 mi North 13.8 mph 18.4 mph N/A   Overcast
5:55 PM 68.9 °F 48.6 °F 48% 29.62 in 10.0 mi North 13.8 mph 18.4 mph N/A   Overcast
6:15 PM 68.7 °F 48.4 °F 48% 29.63 in 10.0 mi North 16.1 mph 19.6 mph N/A   Overcast
6:35 PM 68.9 °F 48.6 °F 48% 29.62 in 10.0 mi North 12.7 mph - N/A   Overcast
6:55 PM 67.3 °F 48.2 °F 50% 29.62 in 10.0 mi North 13.8 mph - N/A   Overcast
7:15 PM 67.5 °F 48.2 °F 50% 29.61 in 10.0 mi North 13.8 mph - N/A   Overcast
7:35 PM 66.6 °F 48.0 °F 51% 29.62 in 10.0 mi North 13.8 mph 18.4 mph N/A   Overcast
7:55 PM 66.4 °F 47.8 °F 51% 29.64 in 10.0 mi North 11.5 mph 18.4 mph N/A   Overcast
8:15 PM 66.0 °F 48.2 °F 53% 29.66 in 10.0 mi North 12.7 mph - N/A   Overcast
8:35 PM 65.3 °F 47.7 °F 53% 29.66 in 10.0 mi North 12.7 mph - N/A   Overcast
8:55 PM 64.4 °F 47.3 °F 54% 29.65 in 10.0 mi North 16.1 mph - N/A   Overcast
9:15 PM 64.4 °F 47.1 °F 53% 29.69 in 10.0 mi NNW 13.8 mph - N/A Thunderstorm Overcast
9:35 PM 64.0 °F 46.9 °F 54% 29.72 in 10.0 mi NNW 9.2 mph - N/A Thunderstorm Overcast
9:55 PM 60.3 °F 50.7 °F 71% 29.76 in 4.0 mi North 5.8 mph - 0.09 in Rain , Thunderstorm Heavy Thunderstorms and Rain
10:15 PM 57.6 °F 51.1 °F 79% 29.69 in 7.0 mi North 16.1 mph - 0.10 in Rain , Thunderstorm Light Thunderstorms and Rain
10:35 PM 57.2 °F 50.0 °F 77% 29.66 in 10.0 mi North 18.4 mph - 0.10 in Thunderstorm Mostly Cloudy
10:55 PM 56.5 °F 49.5 °F 77% 29.65 in 10.0 mi North 17.3 mph 25.3 mph 0.10 in Thunderstorm Thunderstorm
11:15 PM 55.8 °F 49.5 °F 79% 29.69 in 10.0 mi North 15.0 mph - N/A   Scattered Clouds
11:35 PM 56.1 °F 49.1 °F 77% 29.72 in 10.0 mi NNW 18.4 mph - N/A   Scattered Clouds
11:55 PM 56.3 °F 48.2 °F 74% 29.69 in 10.0 mi North 17.3 mph 24.2 mph N/A   Scattered Clouds